Home   Weather   Campeche   Past weeks

Flag for Mexico Past Weather in Campeche, Campeche, Mexico — Yesterday and Last 2 Weeks

Now
84 °F

Passing clouds.


Feels Like: 90 °F
Forecast: 73 / 86 °F
Wind: 12 mph from Northwest

Location: Campeche

Current Time: Apr 23, 2017 at 3:17:38 pm

Latest Report: Apr 23, 2017 at 1:43 pm


Visibility: 7 mi

Pressure: 29.87 "Hg

Humidity: 66%

Dew Point: 72 °F

Location of CampecheLocation

Past Weather in Campeche — Graph

°F

Campeche Temperature Yesterday

Maximum temperature yesterday: 86 °F (at 10:42 am)
Minimum temperature yesterday: 73 °F (at 5:22 am)
Average temperature yesterday: 80 °F

High & Low Weather Summary for the Past Weeks

 TemperatureHumidityPressure
High95 °F (Apr 10, 2:42 pm)94% (Apr 18, 6:47 am)30.02 "Hg (Apr 18, 6:47 am)
Low70 °F (Apr 20, 5:51 am)28% (Apr 15, 1:42 pm)29.75 "Hg (Apr 21, 4:42 pm)
Average82 °F71%29.90 "Hg
* Reported Apr 8 1:41 pm — Apr 23 1:43 pm, Campeche, Weather by CustomWeather, © 2017

Note: Actual official high and low records may vary slightly from our data, if they occured in-between our weather recording intervals... More about our weather records

Advertising

Campeche Weather History for the Previous 24 Hours

Scroll right to see more
 ConditionsComfort  
Time TempWeatherWind HumidityBarometerVisibility
1:43 pm
Sun, Apr 23
84 °FPassing clouds.12 mph66%29.87 "Hg7 mi
12:43 pm82 °FPassing clouds.12 mph74%29.89 "Hg7 mi
11:43 am82 °FPassing clouds.12 mph74%29.91 "Hg7 mi
10:40 am86 °FPassing clouds.No wind59%29.91 "Hg7 mi
9:41 am82 °FSunny.No wind70%29.91 "Hg7 mi
8:44 am79 °FSunny.12 mph84%29.90 "Hg7 mi
7:41 am75 °FSunny.No wind94%29.87 "Hg7 mi
6:45 am75 °FPassing clouds.No wind94%29.85 "Hg7 mi
5:43 am75 °FPassing clouds.12 mph89%29.83 "Hg7 mi
5:32 am75 °FPassing clouds.12 mph94%29.82 "Hg7 mi
8:40 pm
Sat, Apr 22
81 °FClear.18 mph79%29.80 "Hg7 mi
7:43 pm81 °FPassing clouds.18 mph84%29.78 "Hg7 mi
6:42 pm82 °FPassing clouds.17 mph79%29.76 "Hg7 mi
5:43 pm82 °FPassing clouds.12 mph79%29.75 "Hg7 mi
4:42 pm82 °FPassing clouds.12 mph79%29.75 "Hg7 mi
3:41 pm84 °FSunny.12 mph74%29.75 "Hg7 mi
Weather by CustomWeather, © 2017

See weather overviewHow to use our weather pages